| time (UTC) | temp F | wind direction | speed MPH | gust MPH | rain 1hr in | rain 24hr in | rain mn in | humidity % | barometer mb |
| 20260510082744 | 56 | 149 | 2.0 | 3.0 | 0.00 | 0.00 | 0.00 | 86 | 1013.2 |
| 20260510082119 | 57 | 163 | 2.0 | 4.0 | 0.00 | 0.00 | 0.00 | 84 | 1013.2 |
| 20260510081549 | 57 | 195 | 2.0 | 4.0 | 0.00 | 0.00 | 0.00 | 84 | 1013.2 |
| 20260510080918 | 57 | 149 | 2.0 | 3.0 | 0.00 | 0.00 | 0.00 | 84 | 1013.2 |
| 20260510080327 | 57 | 186 | 3.0 | 3.0 | 0.00 | 0.00 | 0.00 | 84 | 1012.8 |
| 20260510075750 | 57 | 124 | 4.0 | 5.0 | 0.00 | 0.00 | 0.00 | 84 | 1013.2 |
| 20260510074542 | 57 | 213 | 1.0 | 2.0 | 0.00 | 0.00 | 0.00 | 85 | 1013.2 |
| 20260510073942 | 57 | 170 | 2.0 | 3.0 | 0.00 | 0.00 | 0.00 | 84 | 1012.8 |
| 20260510073347 | 57 | 122 | 0.0 | 2.0 | 0.00 | 0.00 | 0.00 | 84 | 1012.8 |
| 20260510072734 | 57 | 130 | 1.0 | 2.0 | 0.00 | 0.00 | 0.00 | 84 | 1013.2 |
| 20260510072126 | 58 | 196 | 0.0 | 4.0 | 0.00 | 0.00 | 0.00 | 84 | 1012.8 |
| 20260510071546 | 58 | 91 | 2.0 | 5.0 | 0.00 | 0.00 | 0.00 | 83 | 1013.2 |
| 20260510070925 | 58 | 180 | 2.0 | 4.0 | 0.00 | 0.00 | 0.00 | 84 | 1012.8 |
| 20260510070312 | 57 | 158 | 1.0 | 3.0 | 0.00 | 0.00 | 0.00 | 84 | 1013.2 |
| 20260510065734 | 58 | 171 | 0.0 | 4.0 | 0.00 | 0.00 | 0.00 | 84 | 1013.2 |
| 20260510065141 | 58 | 151 | 2.0 | 4.0 | 0.00 | 0.00 | 0.00 | 83 | 1012.8 |
| 20260510063923 | 58 | 135 | 2.0 | 6.0 | 0.00 | 0.00 | 0.00 | 82 | 1013.2 |
| 20260510063330 | 58 | 111 | 3.0 | 6.0 | 0.00 | 0.00 | 0.00 | 82 | 1013.2 |
| 20260510062709 | 58 | 191 | 2.0 | 4.0 | 0.00 | 0.00 | 0.00 | 82 | 1013.2 |
| 20260510062146 | 58 | 192 | 5.0 | 6.0 | 0.00 | 0.00 | 0.00 | 82 | 1012.8 |
| 20260510061534 | 58 | 162 | 1.0 | 4.0 | 0.00 | 0.00 | 0.00 | 82 | 1013.2 |
| 20260510060949 | 58 | 204 | 2.0 | 4.0 | 0.00 | 0.00 | 0.00 | 82 | 1013.2 |
| 20260510060341 | 59 | 200 | 4.0 | 4.0 | 0.00 | 0.00 | 0.00 | 82 | 1013.2 |
| 20260510055725 | 59 | 155 | 4.0 | 5.0 | 0.00 | 0.00 | 0.00 | 81 | 1013.2 |
| 20260510055118 | 59 | 115 | 3.0 | 6.0 | 0.00 | 0.00 | 0.00 | 80 | 1012.8 |
| 20260510054538 | 59 | 214 | 3.0 | 6.0 | 0.00 | 0.00 | 0.00 | 80 | 1013.2 |
| 20260510053314 | 60 | 171 | 6.0 | 8.0 | 0.00 | 0.00 | 0.00 | 80 | 1013.2 |
| 20260510052149 | 59 | 165 | 8.0 | 8.0 | 0.00 | 0.00 | 0.00 | 80 | 1013.5 |
| 20260510051548 | 59 | 130 | 4.0 | 8.0 | 0.00 | 0.00 | 0.00 | 80 | 1013.2 |
| 20260510050912 | 59 | 139 | 3.0 | 6.0 | 0.00 | 0.00 | 0.00 | 80 | 1013.5 |
| 20260510050332 | 60 | 179 | 6.0 | 8.0 | 0.00 | 0.00 | 0.00 | 79 | 1013.2 |
| 20260510045721 | 60 | 159 | 5.0 | 9.0 | 0.00 | 0.00 | 0.00 | 79 | 1013.2 |
| 20260510045110 | 60 | 180 | 3.0 | 10.0 | 0.00 | 0.00 | 0.00 | 79 | 1013.2 |
| 20260510043931 | 60 | 172 | 2.0 | 8.0 | 0.00 | 0.00 | 0.00 | 79 | 1013.2 |
| 20260510043338 | 60 | 137 | 7.0 | 9.0 | 0.00 | 0.00 | 0.00 | 79 | 1013.2 |
| 20260510042711 | 60 | 198 | 10.0 | 11.0 | 0.00 | 0.00 | 0.00 | 78 | 1013.2 |
| 20260510042145 | 60 | 168 | 5.0 | 6.0 | 0.00 | 0.00 | 0.00 | 78 | 1013.5 |
| 20260510041533 | 60 | 183 | 3.0 | 10.0 | 0.00 | 0.00 | 0.00 | 78 | 1013.2 |
| 20260510040924 | 60 | 183 | 7.0 | 8.0 | 0.00 | 0.00 | 0.00 | 78 | 1013.2 |
| 20260510040343 | 60 | 193 | 4.0 | 8.0 | 0.00 | 0.00 | 0.09 | 78 | 1013.2 |
| 20260510035747 | 60 | 178 | 7.0 | 8.0 | 0.00 | 0.00 | 0.09 | 77 | 1013.2 |
| 20260510035123 | 60 | 225 | 7.0 | 11.0 | 0.00 | 0.00 | 0.09 | 77 | 1013.2 |
| 20260510034541 | 60 | 195 | 4.0 | 8.0 | 0.00 | 0.00 | 0.09 | 77 | 1013.2 |
| 20260510033909 | 60 | 226 | 1.0 | 4.0 | 0.00 | 0.00 | 0.09 | 77 | 1012.8 |
| 20260510033316 | 61 | 164 | 3.0 | 8.0 | 0.00 | 0.00 | 0.09 | 76 | 1012.8 |
| 20260510032752 | 61 | 218 | 5.0 | 8.0 | 0.00 | 0.00 | 0.09 | 76 | 1012.8 |
| 20260510032147 | 61 | 169 | 4.0 | 8.0 | 0.00 | 0.00 | 0.09 | 75 | 1012.8 |
| 20260510031524 | 60 | 185 | 3.0 | 6.0 | 0.00 | 0.00 | 0.09 | 76 | 1012.8 |
| 20260510030919 | 61 | 171 | 3.0 | 6.0 | 0.00 | 0.00 | 0.09 | 76 | 1012.5 |
| 20260510030328 | 61 | 217 | 4.0 | 5.0 | 0.00 | 0.00 | 0.09 | 75 | 1012.5 |
| 20260510025732 | 62 | 231 | 3.0 | 11.0 | 0.00 | 0.00 | 0.09 | 74 | 1012.8 |
| 20260510025122 | 61 | 166 | 3.0 | 11.0 | 0.00 | 0.00 | 0.09 | 74 | 1012.5 |
| 20260510023940 | 62 | 175 | 2.0 | 4.0 | 0.00 | 0.00 | 0.09 | 74 | 1012.5 |
| 20260510022739 | 62 | 132 | 3.0 | 6.0 | 0.00 | 0.00 | 0.09 | 73 | 1012.5 |
| 20260510021510 | 62 | 136 | 4.0 | 5.0 | 0.00 | 0.00 | 0.09 | 73 | 1012.5 |
| 20260510020952 | 62 | 219 | 6.0 | 6.0 | 0.00 | 0.00 | 0.09 | 73 | 1012.5 |
| 20260510015740 | 62 | 124 | 6.0 | 8.0 | 0.00 | 0.00 | 0.09 | 72 | 1012.5 |
| 20260510015143 | 62 | 180 | 4.0 | 4.0 | 0.00 | 0.00 | 0.09 | 72 | 1012.1 |
| 20260510014511 | 62 | 111 | 4.0 | 6.0 | 0.00 | 0.00 | 0.09 | 71 | 1012.1 |
| 20260510013946 | 62 | 172 | 3.0 | 5.0 | 0.00 | 0.00 | 0.09 | 71 | 1011.8 |
| 20260510012725 | 63 | 162 | 2.0 | 8.0 | 0.00 | 0.00 | 0.09 | 71 | 1011.8 |
| 20260510012131 | 63 | 173 | 4.0 | 6.0 | 0.00 | 0.00 | 0.09 | 70 | 1011.8 |
| 20260510011556 | 63 | 189 | 4.0 | 5.0 | 0.00 | 0.00 | 0.09 | 69 | 1011.5 |
| 20260510010951 | 63 | 125 | 2.0 | 5.0 | 0.00 | 0.00 | 0.09 | 69 | 1011.5 |
| 20260510010348 | 63 | 126 | 1.0 | 4.0 | 0.00 | 0.00 | 0.09 | 69 | 1011.5 |
| 20260510005143 | 64 | 161 | 2.0 | 4.0 | 0.00 | 0.00 | 0.09 | 68 | 1011.1 |
| 20260510004550 | 64 | 127 | 4.0 | 4.0 | 0.00 | 0.00 | 0.09 | 67 | 1011.1 |
| 20260510003307 | 64 | 180 | 3.0 | 6.0 | 0.00 | 0.00 | 0.09 | 68 | 1011.1 |
| 20260510002716 | 64 | 117 | 2.0 | 5.0 | 0.00 | 0.00 | 0.09 | 67 | 1011.1 |
| 20260510001511 | 65 | 171 | 4.0 | 5.0 | 0.00 | 0.00 | 0.09 | 66 | 1011.1 |
| 20260510000943 | 65 | 231 | 2.0 | 5.0 | 0.00 | 0.00 | 0.09 | 65 | 1011.1 |
| 20260510000349 | 65 | 192 | 6.0 | 11.0 | 0.00 | 0.00 | 0.09 | 64 | 1011.1 |
| 20260509235710 | 66 | 182 | 4.0 | 6.0 | 0.00 | 0.00 | 0.09 | 63 | 1011.1 |
| 20260509235126 | 66 | 177 | 3.0 | 7.0 | 0.00 | 0.00 | 0.09 | 63 | 1010.8 |
| 20260509234543 | 66 | 187 | 2.0 | 6.0 | 0.00 | 0.00 | 0.09 | 62 | 1010.8 |
| 20260509233949 | 66 | 167 | 8.0 | 9.0 | 0.00 | 0.00 | 0.09 | 62 | 1011.1 |
| 20260509233339 | 66 | 176 | 8.0 | 10.0 | 0.00 | 0.00 | 0.09 | 61 | 1010.8 |
| 20260509232130 | 67 | 143 | 3.0 | 5.0 | 0.00 | 0.00 | 0.09 | 61 | 1011.1 |
| 20260509231509 | 67 | 251 | 0.0 | 3.0 | 0.00 | 0.00 | 0.09 | 63 | 1010.8 |
| 20260509230951 | 67 | 176 | 3.0 | 6.0 | 0.00 | 0.00 | 0.09 | 60 | 1010.8 |
| 20260509230332 | 67 | 234 | 2.0 | 9.0 | 0.00 | 0.00 | 0.09 | 60 | 1010.8 |
| 20260509225146 | 68 | 211 | 6.0 | 9.0 | 0.00 | 0.00 | 0.09 | 58 | 1010.8 |
| 20260509224535 | 68 | 164 | 5.0 | 7.0 | 0.00 | 0.00 | 0.09 | 58 | 1010.8 |
| 20260509223928 | 68 | 180 | 6.0 | 8.0 | 0.00 | 0.00 | 0.09 | 60 | 1010.8 |
| 20260509223343 | 67 | 188 | 6.0 | 11.0 | 0.00 | 0.00 | 0.09 | 61 | 1011.1 |
| 20260509222130 | 67 | 180 | 6.0 | 17.0 | 0.00 | 0.00 | 0.09 | 60 | 1011.1 |
| 20260509220917 | 68 | 196 | 4.0 | 8.0 | 0.00 | 0.00 | 0.09 | 58 | 1011.5 |
| 20260509220325 | 68 | 194 | 0.0 | 8.0 | 0.00 | 0.00 | 0.09 | 61 | 1011.1 |
| 20260509215723 | 68 | 199 | 6.0 | 8.0 | 0.00 | 0.00 | 0.09 | 58 | 1011.1 |
| 20260509215134 | 68 | 177 | 8.0 | 9.0 | 0.00 | 0.00 | 0.09 | 59 | 1011.1 |
| 20260509214520 | 68 | 184 | 3.0 | 9.0 | 0.00 | 0.00 | 0.09 | 59 | 1011.1 |
| 20260509213334 | 68 | 250 | 5.0 | 11.0 | 0.00 | 0.00 | 0.09 | 63 | 1011.1 |
| 20260509212738 | 68 | 173 | 11.0 | 12.0 | 0.00 | 0.00 | 0.09 | 59 | 1011.1 |
| 20260509212145 | 68 | 196 | 0.0 | 7.0 | 0.00 | 0.00 | 0.09 | 59 | 1011.1 |
| 20260509211542 | 67 | 199 | 3.0 | 9.0 | 0.00 | 0.00 | 0.09 | 62 | 1011.1 |
| 20260509210931 | 66 | 162 | 7.0 | 9.0 | 0.00 | 0.00 | 0.09 | 62 | 1011.1 |
| 20260509210318 | 68 | 258 | 1.0 | 6.0 | 0.00 | 0.00 | 0.09 | 63 | 1011.1 |
| 20260509205747 | 68 | 180 | 4.0 | 13.0 | 0.00 | 0.00 | 0.09 | 61 | 1011.1 |
| 20260509205134 | 68 | 151 | 7.0 | 11.0 | 0.00 | 0.00 | 0.09 | 60 | 1011.1 |
| 20260509204537 | 68 | 244 | 2.0 | 5.0 | 0.00 | 0.00 | 0.09 | 60 | 1011.5 |
| 20260509203950 | 68 | 256 | 3.0 | 12.0 | 0.00 | 0.00 | 0.09 | 60 | 1011.1 |
| 20260509203321 | 66 | 145 | 11.0 | 12.0 | 0.00 | 0.00 | 0.09 | 62 | 1011.1 |
| 20260509202753 | 66 | 191 | 6.0 | 10.0 | 0.00 | 0.00 | 0.09 | 63 | 1011.1 |
| 20260509202126 | 69 | 197 | 9.0 | 12.0 | 0.00 | 0.00 | 0.09 | 59 | 1011.5 |
| 20260509201532 | 68 | 173 | 7.0 | 10.0 | 0.00 | 0.00 | 0.09 | 64 | 1011.5 |
| 20260509200939 | 66 | 191 | 13.0 | 13.0 | 0.00 | 0.00 | 0.09 | 63 | 1011.5 |
| 20260509200309 | 66 | 217 | 4.0 | 9.0 | 0.00 | 0.00 | 0.09 | 65 | 1011.5 |
| 20260509195125 | 67 | 169 | 3.0 | 9.0 | 0.00 | 0.00 | 0.09 | 64 | 1011.8 |
| 20260509193915 | 66 | 153 | 10.0 | 14.0 | 0.00 | 0.00 | 0.09 | 64 | 1011.8 |
| 20260509193337 | 65 | 173 | 4.0 | 15.0 | 0.00 | 0.00 | 0.09 | 65 | 1011.8 |
| 20260509192748 | 65 | 155 | 5.0 | 10.0 | 0.00 | 0.00 | 0.09 | 65 | 1011.8 |
| 20260509191527 | 65 | 165 | 5.0 | 13.0 | 0.00 | 0.00 | 0.09 | 64 | 1011.8 |
| 20260509190313 | 66 | 164 | 3.0 | 11.0 | 0.00 | 0.00 | 0.09 | 65 | 1011.5 |
| 20260509185750 | 66 | 179 | 5.0 | 7.0 | 0.00 | 0.00 | 0.09 | 67 | 1011.5 |
| 20260509185114 | 65 | 160 | 3.0 | 4.0 | 0.00 | 0.00 | 0.09 | 66 | 1011.8 |
| 20260509184531 | 64 | 224 | 4.0 | 10.0 | 0.00 | 0.00 | 0.09 | 66 | 1011.5 |
| 20260509183936 | 63 | 180 | 4.0 | 7.0 | 0.00 | 0.00 | 0.09 | 67 | 1011.5 |
| 20260509183343 | 62 | 244 | 2.0 | 8.0 | 0.00 | 0.00 | 0.09 | 67 | 1011.8 |
| 20260509182727 | 62 | 180 | 7.0 | 10.0 | 0.00 | 0.00 | 0.09 | 66 | 1011.8 |
| 20260509182153 | 61 | 156 | 5.0 | 9.0 | 0.00 | 0.00 | 0.09 | 68 | 1011.8 |
| 20260509181515 | 61 | 176 | 5.0 | 8.0 | 0.00 | 0.00 | 0.09 | 68 | 1011.8 |
| 20260509180942 | 62 | 166 | 8.0 | 8.0 | 0.00 | 0.00 | 0.09 | 73 | 1011.8 |
| 20260509180315 | 62 | 126 | 4.0 | 10.0 | 0.00 | 0.00 | 0.09 | 72 | 1011.8 |
| 20260509175737 | 62 | 24 | 2.0 | 5.0 | 0.00 | 0.00 | 0.09 | 73 | 1011.8 |
| 20260509175152 | 61 | 139 | 4.0 | 10.0 | 0.00 | 0.00 | 0.09 | 71 | 1011.8 |
| 20260509174526 | 61 | 151 | 7.0 | 12.0 | 0.00 | 0.00 | 0.09 | 74 | 1011.8 |
| 20260509173310 | 59 | 137 | 7.0 | 9.0 | 0.00 | 0.00 | 0.09 | 81 | 1011.8 |
| 20260509172726 | 60 | 132 | 2.0 | 5.0 | 0.00 | 0.00 | 0.09 | 82 | 1011.8 |
| 20260509171510 | 58 | 100 | 3.0 | 5.0 | 0.00 | 0.00 | 0.09 | 85 | 1011.8 |
| 20260509170921 | 57 | 163 | 2.0 | 6.0 | 0.00 | 0.00 | 0.09 | 86 | 1012.1 |
| 20260509170323 | 57 | 135 | 7.0 | 7.0 | 0.00 | 0.00 | 0.09 | 87 | 1012.1 |
| 20260509165719 | 57 | 145 | 3.0 | 6.0 | 0.00 | 0.00 | 0.09 | 89 | 1012.1 |
| 20260509165132 | 57 | 37 | 1.0 | 5.0 | 0.00 | 0.00 | 0.08 | 92 | 1012.1 |
| 20260509164539 | 56 | 180 | 3.0 | 5.0 | 0.00 | 0.00 | 0.08 | 92 | 1012.5 |
| 20260509163934 | 56 | 201 | 2.0 | 5.0 | 0.00 | 0.00 | 0.08 | 93 | 1012.5 |
| 20260509162115 | 57 | 219 | 2.0 | 3.0 | 0.00 | 0.00 | 0.08 | 93 | 1012.1 |
| 20260509161540 | 57 | 135 | 2.0 | 4.0 | 0.00 | 0.00 | 0.08 | 93 | 1012.1 |
| 20260509160930 | 57 | 134 | 2.0 | 3.0 | 0.00 | 0.00 | 0.08 | 93 | 1012.1 |
| 20260509160345 | 56 | 156 | 0.0 | 2.0 | 0.00 | 0.00 | 0.08 | 93 | 1012.1 |
| 20260509155716 | 56 | 217 | 1.0 | 2.0 | 0.00 | 0.00 | 0.08 | 93 | 1012.1 |
| 20260509154540 | 56 | 126 | 2.0 | 4.0 | 0.00 | 0.00 | 0.08 | 94 | 1012.1 |
| 20260509153940 | 56 | 118 | 2.0 | 3.0 | 0.00 | 0.00 | 0.08 | 94 | 1011.8 |
| 20260509153324 | 56 | 92 | 2.0 | 7.0 | 0.00 | 0.00 | 0.08 | 95 | 1011.8 |
| 20260509152127 | 56 | 113 | 2.0 | 3.0 | 0.00 | 0.00 | 0.08 | 96 | 1012.1 |
| 20260509150915 | 56 | 19 | 3.0 | 3.0 | 0.00 | 0.00 | 0.08 | 96 | 1011.8 |
| 20260509150315 | 56 | 43 | 1.0 | 2.0 | 0.00 | 0.00 | 0.08 | 97 | 1011.8 |
| 20260509145740 | 56 | 24 | 3.0 | 3.0 | 0.00 | 0.00 | 0.08 | 97 | 1011.8 |
| 20260509145127 | 56 | 38 | 2.0 | 3.0 | 0.00 | 0.00 | 0.08 | 97 | 1012.1 |
| 20260509144508 | 56 | 93 | 0.0 | 3.0 | 0.00 | 0.00 | 0.08 | 97 | 1012.1 |
| 20260509143907 | 56 | 31 | 2.0 | 3.0 | 0.00 | 0.00 | 0.08 | 97 | 1012.1 |
| 20260509142746 | 54 | 21 | 2.0 | 3.0 | 0.00 | 0.00 | 0.08 | 97 | 1012.1 |
| 20260509141517 | 55 | 28 | 0.0 | 0.0 | 0.00 | 0.00 | 0.08 | 97 | 1012.5 |
| 20260509140924 | 54 | 25 | 2.0 | 3.0 | 0.00 | 0.00 | 0.08 | 97 | 1012.5 |
| 20260509140344 | 54 | 23 | 2.0 | 2.0 | 0.00 | 0.00 | 0.07 | 97 | 1012.1 |
| 20260509135710 | 54 | 109 | 0.0 | 2.0 | 0.00 | 0.00 | 0.07 | 97 | 1012.1 |
| 20260509135112 | 54 | 51 | 0.0 | 2.0 | 0.00 | 0.00 | 0.07 | 97 | 1012.1 |
| 20260509134545 | 54 | 28 | 3.0 | 3.0 | 0.00 | 0.00 | 0.07 | 98 | 1012.1 |
| 20260509133914 | 54 | 25 | 3.0 | 3.0 | 0.00 | 0.00 | 0.07 | 98 | 1012.1 |
| 20260509132743 | 53 | 297 | 0.0 | 4.0 | 0.00 | 0.00 | 0.07 | 99 | 1012.1 |
| 20260509132132 | 53 | 37 | 0.0 | 2.0 | 0.00 | 0.00 | 0.07 | 99 | 1012.5 |
| 20260509131511 | 53 | 37 | 2.0 | 4.0 | 0.00 | 0.00 | 0.07 | 99 | 1012.1 |
| 20260509130917 | 52 | 82 | 1.0 | 2.0 | 0.00 | 0.00 | 0.07 | 99 | 1012.5 |
| 20260509130311 | 52 | 88 | 1.0 | 3.0 | 0.00 | 0.00 | 0.07 | 99 | 1012.5 |
| 20260509125721 | 53 | 23 | 1.0 | 2.0 | 0.00 | 0.00 | 0.07 | 99 | 1012.8 |
| 20260509125123 | 53 | 85 | 0.0 | 2.0 | 0.00 | 0.00 | 0.06 | 99 | 1012.8 |
| 20260509123935 | 52 | 141 | 2.0 | 2.0 | 0.00 | 0.00 | 0.06 | 99 | 1012.8 |
| 20260509123351 | 52 | 26 | 0.0 | 0.0 | 0.00 | 0.00 | 0.06 | 99 | 1012.5 |
| 20260509122746 | 52 | 152 | 1.0 | 2.0 | 0.00 | 0.00 | 0.06 | 99 | 1012.5 |
| 20260509122142 | 52 | 27 | 2.0 | 3.0 | 0.00 | 0.00 | 0.06 | 99 | 1012.5 |
| 20260509121510 | 52 | 26 | 4.0 | 4.0 | 0.00 | 0.00 | 0.06 | 99 | 1012.5 |
| 20260509120914 | 51 | 38 | 4.0 | 4.0 | 0.00 | 0.00 | 0.06 | 99 | 1012.8 |
| 20260509120320 | 51 | 76 | 2.0 | 4.0 | 0.00 | 0.00 | 0.06 | 99 | 1012.8 |
| 20260509115739 | 51 | 43 | 4.0 | 5.0 | 0.00 | 0.00 | 0.06 | 99 | 1012.8 |
| 20260509115121 | 51 | 34 | 4.0 | 4.0 | 0.00 | 0.00 | 0.06 | 99 | 1012.5 |
| 20260509113926 | 51 | 43 | 4.0 | 4.0 | 0.00 | 0.00 | 0.06 | 99 | 1012.5 |
| 20260509113325 | 51 | 48 | 3.0 | 4.0 | 0.00 | 0.00 | 0.06 | 99 | 1012.5 |
| 20260509112131 | 51 | 42 | 2.0 | 3.0 | 0.00 | 0.00 | 0.05 | 99 | 1012.5 |
| 20260509110934 | 51 | 23 | 2.0 | 3.0 | 0.00 | 0.00 | 0.04 | 98 | 1012.5 |
| 20260509110313 | 51 | 44 | 3.0 | 3.0 | 0.00 | 0.00 | 0.04 | 98 | 1012.5 |
| 20260509104545 | 51 | 14 | 2.0 | 4.0 | 0.00 | 0.00 | 0.03 | 97 | 1012.1 |
| 20260509103940 | 51 | 27 | 2.0 | 2.0 | 0.00 | 0.00 | 0.03 | 96 | 1012.5 |
| 20260509103313 | 51 | 10 | 2.0 | 2.0 | 0.00 | 0.00 | 0.03 | 96 | 1012.5 |
| 20260509102735 | 51 | 23 | 0.0 | 3.0 | 0.00 | 0.00 | 0.02 | 94 | 1012.5 |
| 20260509102123 | 52 | 15 | 0.0 | 2.0 | 0.00 | 0.00 | 0.02 | 94 | 1012.5 |
| 20260509101514 | 52 | 30 | 2.0 | 3.0 | 0.00 | 0.00 | 0.02 | 93 | 1012.1 |
| 20260509100920 | 52 | 37 | 1.0 | 4.0 | 0.00 | 0.00 | 0.02 | 91 | 1012.1 |
| 20260509100325 | 52 | 34 | 2.0 | 4.0 | 0.00 | 0.00 | 0.02 | 91 | 1012.1 |
| 20260509095736 | 51 | 70 | 1.0 | 3.0 | 0.00 | 0.00 | 0.02 | 94 | 1012.1 |
| 20260509095147 | 51 | 48 | 3.0 | 4.0 | 0.00 | 0.00 | 0.02 | 94 | 1012.1 |
| 20260509094533 | 51 | 29 | 4.0 | 5.0 | 0.00 | 0.00 | 0.02 | 94 | 1012.1 |
| 20260509093330 | 52 | 4 | 4.0 | 4.0 | 0.00 | 0.00 | 0.01 | 88 | 1012.1 |
| 20260509092117 | 53 | 54 | 2.0 | 3.0 | 0.00 | 0.00 | 0.01 | 87 | 1012.5 |
| 20260509090945 | 54 | 53 | 3.0 | 3.0 | 0.00 | 0.00 | 0.01 | 83 | 1012.5 |
| 20260509090350 | 54 | 43 | 3.0 | 3.0 | 0.00 | 0.00 | 0.01 | 84 | 1012.5 |
| 20260509085712 | 53 | 60 | 2.0 | 2.0 | 0.00 | 0.00 | 0.01 | 82 | 1012.5 |
| 20260509085139 | 54 | 59 | 1.0 | 2.0 | 0.00 | 0.00 | 0.01 | 81 | 1012.5 |
| 20260509084532 | 54 | 46 | 2.0 | 4.0 | 0.00 | 0.00 | 0.01 | 82 | 1012.5 |
| 20260509083918 | 53 | 46 | 4.0 | 4.0 | 0.00 | 0.00 | 0.01 | 83 | 1012.5 |
| 20260509083337 | 54 | 19 | 3.0 | 3.0 | 0.00 | 0.00 | 0.01 | 81 | 1012.8 |